K7PB Weather Reports


time (UTC)temp
C
wind
direction
speed
KPH
gust
KPH
rain 1hr
cm
rain 24hr
cm
rain mn
cm
humidity
%
barometer
mb
20260502123043 -17 0.0 0.0 0.00 0.00 0.00 1015.4
20260502121547 -17 0.0 0.0 0.00 0.00 0.00 1015.5
20260502114531 -17 0.0 0.0 0.00 0.00 0.00 1015.7
20260502113026 5 0.0 0.0 0.00 0.00 0.00 56 1015.9
20260502111521 5 0.0 0.0 0.00 0.00 0.00 56 1015.8
20260502110018 5 0.0 0.0 0.00 0.00 0.00 56 1015.9
20260502104513 5 0.0 0.0 0.00 0.00 0.00 55 1015.7
20260502103007 6 0.0 0.0 0.00 0.00 0.00 56 1015.6
20260502101503 6 0.0 0.0 0.00 0.00 0.00 54 1015.4
20260502071509 7 0.0 0.0 0.00 0.00 0.00 59 1015.1
20260502070005 7 0.0 0.0 0.00 0.00 0.00 60 1015.1
20260502064501 7 0.0 0.0 0.00 0.00 0.00 59 1015.0
20260502063058 7 0.0 0.0 0.00 0.00 0.00 56 1014.9
20260502061553 8 0.0 0.0 0.00 0.00 0.00 57 1014.8
20260502060048 8 0.0 0.0 0.00 0.00 0.00 57 1014.9
20260502054545 8 0.0 0.0 0.00 0.00 0.00 56 1014.8
20260502053039 8 0.0 0.0 0.00 0.00 0.00 56 1014.7
20260502051543 8 0.0 0.0 0.00 0.00 0.00 56 1014.8
20260502050037 8 0.0 0.0 0.00 0.00 0.00 55 1014.6
20260502044526 8 0.0 0.0 0.00 0.00 0.00 55 1014.6
20260502043022 9 0.0 0.0 0.00 0.00 0.00 54 1014.5
20260502041518 9 0.0 0.0 0.00 0.00 0.00 53 1014.5
20260502040013 10 0.0 0.0 0.00 0.00 0.00 49 1014.4
20260502034510 11 0.0 0.0 0.00 0.00 0.00 46 1014.3
20260502033004 11 0.0 0.0 0.00 0.00 0.00 43 1014.1
20260502031600 12 0.0 0.0 0.00 0.00 0.00 39 1013.9
20260502030057 13 0.0 0.0 0.00 0.00 0.00 36 1013.7
20260502024554 14 0.0 0.0 0.00 0.00 0.00 36 1013.4
20260502023052 15 0.0 0.0 0.00 0.00 0.00 35 1013.2
20260502021543 16 0.0 0.0 0.00 0.00 0.00 33 1013.1
20260502020040 16 286 0.0 8.0 0.00 0.00 0.00 31 1013.0
20260502014539 17 288 1.6 11.3 0.00 0.00 0.00 29 1012.8
20260502013038 18 308 1.6 11.3 0.00 0.00 0.00 27 1012.8
20260502011538 19 298 6.4 14.5 0.00 0.00 0.00 26 1012.7
20260502010037 19 315 4.8 17.7 0.00 0.00 0.00 27 1012.7
20260502004538 19 292 3.2 16.1 0.00 0.00 0.00 26 1012.8
20260502003037 19 281 3.2 17.7 0.00 0.00 0.00 27 1012.8
20260502001535 20 306 1.6 11.3 0.00 0.00 0.00 26 1012.9
20260502000033 20 317 4.8 12.9 0.00 0.00 0.00 26 1013.0
20260501234532 20 304 3.2 12.9 0.00 0.00 0.00 26 1013.0
20260501233032 20 67 1.6 11.3 0.00 0.00 0.00 25 1013.0
20260501231549 20 269 1.6 11.3 0.00 0.00 0.00 24 1013.0
20260501230029 20 331 4.8 14.5 0.00 0.00 0.00 25 1013.1
20260501224526 20 295 1.6 16.1 0.00 0.00 0.00 25 1013.2
20260501223037 20 309 4.8 14.5 0.00 0.00 0.00 25 1013.4
20260501221525 20 286 6.4 20.9 0.00 0.00 0.00 23 1013.5
20260501220021 20 300 11.3 30.6 0.00 0.00 0.00 23 1013.8
20260501214518 20 299 4.8 19.3 0.00 0.00 0.00 24 1014.0
20260501213018 20 308 8.0 22.5 0.00 0.00 0.00 23 1014.1
20260501211518 19 300 4.8 19.3 0.00 0.00 0.00 24 1014.2
20260501210016 19 298 9.7 25.7 0.00 0.00 0.00 23 1014.4
20260501204520 20 281 3.2 20.9 0.00 0.00 0.00 23 1014.4
20260501203014 20 263 3.2 19.3 0.00 0.00 0.00 21 1014.5
20260501201513 19 284 3.2 14.5 0.00 0.00 0.00 20 1014.4
20260501200011 18 284 3.2 14.5 0.00 0.00 0.00 24 1014.5
20260501194511 19 239 4.8 17.7 0.00 0.00 0.00 21 1014.6
20260501193010 19 265 4.8 20.9 0.00 0.00 0.00 21 1014.6
20260501191509 18 286 6.4 17.7 0.00 0.00 0.00 20 1014.7
20260501190012 18 283 3.2 17.7 0.00 0.00 0.00 21 1014.9
20260501184506 18 42 4.8 12.9 0.00 0.00 0.00 20 1015.1
20260501183006 18 323 0.0 9.7 0.00 0.00 0.00 19 1015.3
20260501181503 18 28 3.2 11.3 0.00 0.00 0.00 24 1015.5
20260501174610 17 25 6.4 17.7 0.00 0.00 0.00 23 1015.9
20260501173056 17 5 3.2 14.5 0.00 0.00 0.00 24 1016.0
20260501171552 16 32 4.8 20.9 0.00 0.00 0.00 25 1016.2
20260501170052 15 123 4.8 14.5 0.00 0.00 0.00 27 1016.1
20260501164549 15 90 4.8 16.1 0.00 0.00 0.00 26 1016.1
20260501163047 15 86 3.2 16.1 0.00 0.00 0.00 29 1016.0
20260501161550 15 104 8.0 22.5 0.00 0.00 0.00 30 1016.1
20260501160048 14 64 1.6 16.1 0.00 0.00 0.00 32 1016.0
20260501154538 13 0.0 0.0 0.00 0.00 0.00 31 1016.1
20260501153032 13 0.0 0.0 0.00 0.00 0.00 33 1016.0
20260501151528 13 0.0 0.0 0.00 0.00 0.00 32 1016.1
20260501150030 13 0.0 0.0 0.00 0.00 0.00 33 1016.1